CDT,Max TemperatureF,Mean TemperatureF,Min TemperatureF,Max Dew PointF,MeanDew PointF,Min DewpointF,Max Humidity, Mean Humidity, Min Humidity, Max Sea Level PressureIn, Mean Sea Level PressureIn, Min Sea Level PressureIn, Max VisibilityMiles, Mean VisibilityMiles, Min VisibilityMiles, Max Wind SpeedMPH, Mean Wind SpeedMPH, Max Gust SpeedMPH,PrecipitationIn, CloudCover, Events, WindDirDegrees
2013-3-1,30,24,15,25,18,10,86,70,59,30.27,30.21,30.12,10,9,2,15,7,18,0.00,6,Snow,14
2013-3-2,28,17,6,18,9,1,85,72,51,30.28,30.24,30.19,10,10,10,12,2,,0.00,0,,325
2013-3-3,30,16,3,16,9,-2,85,65,44,30.18,30.10,30.04,10,10,10,10,2,,0.00,1,,136
2013-3-4,33,28,24,25,20,12,80,69,55,30.06,29.97,29.90,10,8,0,23,13,31,0.00,5,Snow,105
2013-3-5,33,30,26,27,25,21,86,81,74,30.18,29.97,29.90,10,6,0,17,7,21,0.18,8,Snow,348
2013-3-6,28,16,3,21,16,0,85,77,69,30.35,30.31,30.18,10,9,4,15,10,21,0.00,5,,325
2013-3-7,28,12,-4,21,8,-9,86,78,72,30.41,30.38,30.35,10,8,4,12,2,,0.01,3,,138
2013-3-8,39,29,19,28,24,16,86,76,65,30.39,30.33,30.20,10,8,5,16,9,20,0.02,0,,127
2013-3-9,41,38,35,37,32,28,93,84,75,30.19,29.93,29.72,10,4,1,18,12,24,1.23,8,Rain-Snow,134
2013-3-10,42,38,35,37,35,32,93,88,81,29.74,29.68,29.55,10,4,0,16,5,22,0.86,8,Fog-Rain-Snow,31
2013-3-11,35,32,28,32,28,23,87,81,75,29.87,29.70,29.61,10,8,2,22,9,30,0.00,8,Snow,318
2013-3-12,35,30,24,28,22,18,81,76,64,30.13,29.97,29.87,10,8,0,29,14,37,0.00,6,Snow,281
2013-3-13,33,27,21,19,17,14,80,66,44,30.37,30.31,30.13,10,10,10,18,13,25,0.00,0,,302
2013-3-14,42,33,24,32,25,18,86,74,65,30.34,30.18,30.06,10,10,5,17,4,23,0.00,2,Snow,130
2013-3-15,44,37,30,36,31,27,87,80,70,30.05,29.88,29.75,10,5,2,14,2,17,0.00,1,,71
2013-3-16,35,32,28,30,27,21,87,80,69,30.18,29.98,29.78,10,6,1,10,5,,0.01,7,,4
2013-3-17,35,30,24,27,21,14,80,68,56,30.21,30.10,29.93,10,10,10,20,11,23,0.00,3,,80
2013-3-18,35,27,19,30,22,10,87,80,68,29.92,29.78,29.65,10,5,0,26,11,36,0.21,8,Snow,200
2013-3-19,28,20,12,18,11,7,79,67,55,30.17,30.05,29.87,10,10,10,24,18,30,0.00,2,,285
2013-3-20,23,16,10,10,6,1,68,63,54,30.20,30.15,30.10,10,10,10,26,18,36,0.00,2,,308
2013-3-21,30,18,5,18,9,0,86,68,51,30.12,30.07,30.02,10,10,10,10,4,,0.00,0,,310
2013-3-22,37,26,15,25,17,10,86,67,41,30.08,30.06,30.02,10,10,10,7,1,,0.00,1,,293
2013-3-23,42,33,24,27,23,19,86,66,39,30.13,30.07,30.02,10,10,7,7,2,,0.00,2,,48
2013-3-24,33,30,28,28,26,23,86,81,65,30.04,29.90,29.81,10,5,2,13,6,21,0.03,8,Snow,10
2013-3-25,37,32,28,27,25,21,80,72,60,30.17,30.00,29.87,10,10,10,18,12,24,0.00,7,,339
2013-3-26,41,34,26,27,24,21,80,67,45,30.31,30.25,30.17,10,10,10,17,8,22,0.00,5,,316
2013-3-27,44,35,26,27,24,19,86,66,39,30.36,30.33,30.30,10,10,4,8,1,,0.00,1,,295
2013-3-28,50,38,26,34,27,21,86,66,37,30.37,30.32,30.27,10,10,5,6,1,,0.00,4,,139
2013-3-29,57,44,30,37,32,27,87,66,38,30.32,30.26,30.20,10,9,5,7,1,,0.00,1,,162
2013-3-30,53,45,37,45,38,30,87,76,65,30.20,30.01,29.87,10,7,0,21,9,28,0.02,4,Fog-Rain,175
2013-3-31,50,42,33,39,32,25,93,74,50,30.01,29.87,29.83,10,5,0,25,9,36,0.00,6,Fog-Snow,293